sat.trackr.live / text

‹ back to catalog

YAOGAN-47

NORAD 66988 · 2025-289A

PAYLOAD ACTIVE UNKNOWN

§ Identity

Operator
Country
PRC
Launch date
2025-12-09
Launch site
JSC
Launch vehicle
Mass (kg)
RCS (m²)

External: N2YO · Heavens-Above · Gunter

§ Orbital elements

Epoch: 2026-09-20T21:45:56.652480Z

Period
94.52 min
Inclination
97.4936°
Eccentricity
0.0002441
Mean motion
15.23427810 rev/d
Perigee alt
493.8 km
Apogee alt
497.2 km
Semi-major
6,873.6 km
B*
1.3277e-4
RAAN
334.1484°
Arg perigee
226.4090°
Mean anomaly
133.6945°
Rev number
4,350

§ Raw data

YAOGAN-471 66988U 25289A   26263.90690570  .00003089  00000+0  13277-3 0  99902 66988  97.4936 334.1484 0002441 226.4090 133.6945 15.23427810 43504

JSON: /api/v1/satellites/66988 · /tle

For live sub-satellite position, see the globe view (requires WebGL).

§ Visibility from observer

Set your observer location to see the next 7 days of passes ≥ 10°. The values pass through the URL so the page stays shareable.

No JS? Fill the form by hand. The geolocation button needs JavaScript.